Location: Bukit Nyuki
(2.5885°N, 113.7476°E)
Time: 05:57:11
(UTC+00:00)

Cosmos 2237 Rocket - Pass Details

Date: 18 May 2021
Orbit: 836 x 848 km, 71.0° (Epoch: 22 June)

Event Time Altitude Azimuth Distance (km) Brightness Sun altitude
Exits shadow 21:50:28 - 242° (WSW) 2,713 4.2 -6.4°
Reaches altitude 10° 21:51:31 10° 249° (WSW) 2,461 3.9 -6.2°
Maximum altitude 21:54:52 16° 286° (WNW) 2,056 3.8 -5.4°
Drops below altitude 10° 21:58:14 10° 323° (NW) 2,451 4.5 -4.6°
Sets 22:01:38 0° 345° (NNW) 3,380 5.4 -3.8°
